DELTA 1 DEB, 21470

Orbit data source: Space-Track

DELTA 1 DEB, 21470 is space debris in SSO originally from a launch on Thu, 12 Jun 1975 UTC launched from the Air Force Western Test Range (AFWTR). Debris objects in space refer to the collection of defunct objects orbiting the Earth. Examples of debris include non-operational satellites, rocket bodies, and fragments generated from explosions, collisions, or faulty payload assembly.

Loading next visibility...
Identifier
21470, 1975-052FE
Orbit
SSO
Country
Flag of USUS
Related business
Manufacturer
Unknown
Mission
Spacecraft
Bus & Motor
Unknown
Mass
Unknown
Launch date (UTC)
1975-06-12 (51 years ago)
Launch vehicle
Unknown
Launch site
Air Force Western Test Range (AFWTR)
Object type
Payload
Rocket body
Debris
Shape & HBR
Unknown shape, 0.1 m
Radar Cross Section
Medium (>0.1 m² and <1 m²)

Expand to show TLE details & history
Last TLE update: 2 days ago

TLE from 2 days ago
0 DELTA 1 DEB
1 21470U 75052FE  26171.46504133  .00000160  00000-0  31153-3 0  9999
2 21470  99.7151 338.6765 0097663 258.2542 165.9943 13.50007494727292
Epoch: 2026-06-20T11:09Z
TLE epoch observation values (Epoch: 2026-06-20T11:09:39.570Z)
Latitude
62.9324°
Longitude
-116.88855°
Altitude
1,153.611 km
Speed
7.247 km/s
True Right ascension
21h 16m 49s
True Declination
62° 48' 00"
Sunlit
Object was in daylight at epoch
Visualization orbit readout
Latitude
Unknown
Longitude
Unknown
Altitude
Unknown
Speed
Unknown
Apparent Right ascension
Unknown
Apparent Declination
Unknown
Sunlit
N/A
Visualization observer readout
Local Sidereal Time
00:51:03
Azimuth
Unknown
Elevation
Unknown
Doppler factor
Unknown
Orbital elements
Apogee altitude
1,142.269 km
Perigee altitude
996.797 km
Semi-major axis
7,447.67 km
Eccentricity
0.00977
Inclination
99.7151°
RAAN
338.6765°
Arg. of periapsis
258.2542°
True anomaly
166.26198°
Mean anomaly
165.9943°
Eccentric anomaly
166.12845°
Mean motion
3.37686 °/min
Orbital period
106.61 mins
BSTAR
0.00031153
Loading maneuver chart data...
Computing Atmospheric mass density...

Documentation

Showing up to 5 results
|